Starlink 30109

operational
NORAD ID: 56298 Int'l Des: 2023-056 Owner: SPXS Country: US Constellation: starlink
LEOCIRCULAR

Über Starlink 30109

Beschreibung wird geladen...

Live-Position

3D-Globus wird geladen...

Nächste Überflüge

Höhenverlauf

Altitude vs Time

uPlot chart will show altitude changes over time

Zweizeiliger Elementsatz

1 56298U 23056N 25353.86466330 .00000275 00000-0 35445-4 0 9999
2 56298 43.0030 284.1695 0000973 269.2326 90.8405 15.02535041148078
Epoch: 19. Dez. 2025 • Age: 10 hours

Aktueller Status

Höhe 558.6 km
Geschwindigkeit 7.59 km/s
Subsatellitenpunkt 17.62°N, 112.16°W
Startdatum 19. Apr. 2023
Alter 2.6 years
Typ internet

Technische Details

Klassifizierung Payload
Masse 730.00 kg
Trockenmasse 700.00 kg
Gesamtmasse 730.00 kg
Länge 0.30 m
Durchmesser 4.10 m
Spannweite 29.00 m
Form Box + pan
Hersteller SPXS
Bus-Typ Starlink V2M
Phasenstatus In Orbit
Besitzer/Staat SPXS/US

Große Konstellationen

Loading constellations...